INTELSAT 903 (IS-903)   
1 27403U 02016A   19261.40792005 -.00000227  00000-0  00000+0 0  9992
2 27403   1.6476  90.9065 0002146  69.6911 311.8002  1.00271304 63941
SL-12 R/B(2)            
1 27404U 02016B   19259.11508962 -.00000026  00000-0  00000+0 0  9992
2 27404  25.3443  44.6973 6212796 133.4984 298.8897  2.06291311131605